AB8YS Weather Reports


Display with metric or nautical units.
time (UTC)temp
F
wind
direction
speed
MPH
gust
MPH
rain 1hr
in
rain 24hr
in
rain mn
in
humidity
%
barometer
mb
20260904143104 87 268 0.0 1.0 0.00 0.00 0.00 69 1014.4
20260904141602 86 273 0.0 1.0 0.00 0.00 0.00 72 1014.3
20260904140053 84 272 0.0 0.0 0.00 0.00 0.00 75 1014.2
20260904134546 83 273 0.0 1.0 0.00 0.00 0.00 79 1014.2
20260904133056 82 273 0.0 0.0 0.00 0.00 0.00 80 1014.5
20260904131547 82 273 0.0 0.0 0.00 0.00 0.00 80 1014.4
20260904130046 83 273 0.0 0.0 0.00 0.00 0.00 82 1014.5
20260904124542 82 273 0.0 0.0 0.00 0.00 0.00 85 1014.6
20260904123036 78 273 0.0 0.0 0.00 0.00 0.00 93 1014.6
20260904121533 75 273 0.0 0.0 0.00 0.00 0.00 97 1014.5
20260904120031 73 272 0.0 0.0 0.00 0.00 0.00 97 1014.3
20260904114530 73 272 0.0 0.0 0.00 0.00 0.00 97 1014.1
20260904113030 73 273 0.0 0.0 0.00 0.00 0.00 97 1014.0
20260904111528 73 273 0.0 0.0 0.00 0.00 0.00 97 1013.7
20260904110027 72 273 0.0 0.0 0.00 0.00 0.00 97 1013.5
20260904104526 72 273 0.0 0.0 0.00 0.00 0.00 96 1013.1
20260904103026 73 273 0.0 0.0 0.00 0.00 0.00 96 1013.0
20260904101525 73 273 0.0 0.0 0.00 0.00 0.00 96 1012.9
20260904100024 73 273 0.0 0.0 0.00 0.00 0.00 96 1013.0
20260904094524 73 273 0.0 0.0 0.00 0.00 0.00 96 1013.1
20260904093022 73 273 0.0 0.0 0.00 0.00 0.00 95 1013.0
20260904091540 73 273 0.0 0.0 0.00 0.00 0.00 95 1013.0
20260904090019 73 273 0.0 0.0 0.00 0.00 0.00 95 1013.0
20260904084520 73 272 0.0 0.0 0.00 0.00 0.00 95 1013.0
20260904083026 73 273 0.0 0.0 0.00 0.00 0.00 95 1013.0
20260904081516 74 273 0.0 0.0 0.00 0.00 0.00 95 1013.0
20260904080016 74 272 0.0 0.0 0.00 0.00 0.00 95 1013.0
20260904074518 74 272 0.0 0.0 0.00 0.00 0.00 95 1013.1
20260904073018 74 272 0.0 0.0 0.00 0.00 0.00 95 1013.3
20260904071511 74 273 0.0 0.0 0.00 0.00 0.00 95 1013.5
20260904070010 74 273 0.0 0.0 0.00 0.00 0.00 94 1013.5
20260904064508 74 273 0.0 0.0 0.00 0.00 0.00 94 1013.7
20260904063020 74 273 0.0 0.0 0.00 0.00 0.00 94 1013.9
20260904061508 74 273 0.0 0.0 0.00 0.00 0.00 93 1013.9
20260904060004 75 273 0.0 0.0 0.00 0.00 0.00 92 1014.0
20260904054504 75 273 0.0 0.0 0.00 0.00 0.00 92 1013.9
20260904053001 75 273 0.0 0.0 0.00 0.00 0.00 91 1013.9
20260904051602 76 273 0.0 0.0 0.00 0.00 0.00 91 1013.9
20260904050059 76 273 0.0 0.0 0.00 0.00 0.00 90 1013.9
20260904044608 76 273 0.0 0.0 0.00 0.00 0.00 90 1013.9
20260904043058 77 273 0.0 0.0 0.00 0.00 0.00 89 1013.9
20260904041552 77 273 0.0 0.0 0.00 0.00 0.00 88 1013.8
20260904040049 77 273 0.0 0.0 0.00 0.00 0.00 87 1013.7
20260904034548 78 273 0.0 0.0 0.00 0.00 0.00 87 1013.6
20260904033056 78 273 0.0 0.0 0.00 0.00 0.00 87 1013.7
20260904031601 78 273 0.0 0.0 0.00 0.00 0.00 86 1013.6
20260904030047 78 273 0.0 0.0 0.00 0.00 0.00 85 1013.7
20260904024546 79 272 0.0 0.0 0.00 0.00 0.00 85 1013.7
20260904023046 79 273 0.0 0.0 0.00 0.00 0.00 84 1013.7
20260904021550 79 272 0.0 0.0 0.00 0.00 0.00 84 1013.7
20260904020045 79 273 0.0 0.0 0.00 0.00 0.00 84 1013.7
20260904014545 80 273 0.0 0.0 0.00 0.00 0.00 84 1013.7
20260904013043 80 273 0.0 0.0 0.00 0.00 0.00 82 1013.7
20260904011543 81 273 0.0 0.0 0.00 0.00 0.00 81 1013.8
20260904010043 81 273 0.0 0.0 0.00 0.00 0.00 79 1013.7
20260904004542 82 273 0.0 0.0 0.00 0.00 0.00 77 1013.6
20260904003041 83 273 0.0 0.0 0.00 0.00 0.00 74 1013.4
20260904001542 84 272 0.0 0.0 0.00 0.00 0.00 73 1013.4
20260904000040 85 273 0.0 0.0 0.00 0.00 0.00 70 1013.4
20260903234540 86 273 0.0 0.0 0.00 0.00 0.00 69 1013.4
20260903233045 87 273 0.0 0.0 0.00 0.00 0.00 67 1013.3
20260903231539 87 273 0.0 1.0 0.00 0.00 0.00 65 1013.1
20260903230039 88 272 0.0 0.0 0.00 0.00 0.00 64 1013.1
20260903224541 89 273 0.0 1.0 0.00 0.00 0.00 60 1013.0
20260903223037 89 272 0.0 0.0 0.00 0.00 0.00 62 1013.1
20260903221546 90 273 0.0 0.0 0.00 0.00 0.00 61 1013.0
20260903220036 90 271 0.0 3.0 0.00 0.00 0.00 57 1012.7
20260903214536 90 275 0.0 1.0 0.00 0.00 0.00 60 1012.4
20260903213036 91 72 0.0 1.0 0.00 0.00 0.00 58 1012.3
20260903211534 91 268 0.0 1.0 0.00 0.00 0.00 58 1012.2
20260903210035 91 280 0.0 1.0 0.00 0.00 0.00 57 1012.2
20260903204532 91 267 0.0 1.0 0.00 0.00 0.00 56 1012.2
20260903203045 91 284 0.0 1.0 0.00 0.00 0.00 59 1012.6
20260903201528 92 266 0.0 2.0 0.00 0.00 0.00 58 1012.9
20260903200040 92 267 0.0 1.0 0.00 0.00 0.00 56 1013.2
20260903194537 92 278 0.0 1.0 0.00 0.00 0.00 56 1013.4
20260903193033 93 262 0.0 1.0 0.00 0.00 0.00 57 1013.5
20260903191522 93 273 0.0 1.0 0.00 0.00 0.00 56 1013.7
20260903190021 92 274 0.0 1.0 0.00 0.00 0.00 55 1013.9
20260903184519 92 264 0.0 1.0 0.00 0.00 0.00 57 1014.0
20260903183021 92 283 0.0 1.0 0.00 0.00 0.00 56 1014.1
20260903181517 91 311 0.0 0.0 0.00 0.00 0.00 58 1014.2
20260903180031 91 285 0.0 0.0 0.00 0.00 0.00 59 1014.3
20260903174516 93 255 0.0 1.0 0.00 0.00 0.00 57 1014.4
20260903173015 93 271 0.0 1.0 0.00 0.00 0.00 55 1014.5
20260903171513 92 265 0.0 1.0 0.00 0.00 0.00 58 1014.6
20260903170012 92 286 0.0 2.0 0.00 0.00 0.00 57 1014.7
20260903164511 92 256 0.0 1.0 0.00 0.00 0.00 58 1014.8
20260903163008 92 275 0.0 1.0 0.00 0.00 0.00 60 1014.9
20260903161507 92 258 0.0 1.0 0.00 0.00 0.00 60 1015.1
20260903160007 91 265 0.0 1.0 0.00 0.00 0.00 64 1015.1
20260903154502 91 255 0.0 1.0 0.00 0.00 0.00 64 1015.1
20260903153002 91 240 0.0 1.0 0.00 0.00 0.00 64 1015.1
20260903151600 90 273 0.0 1.0 0.00 0.00 0.00 65 1015.1
20260903150100 89 264 0.0 1.0 0.00 0.00 0.00 68 1015.1
20260903144556 89 309 0.0 0.0 0.00 0.00 0.00 66 1015.1